Retour au catalogue

FENGYUN 1C DEB

ActifSSO
NORAD 30921·DEBRIS·🇨🇳 China

Lancé May 10, 1999 depuis Taiyuan Satellite Launch Center

Loading…

Prochains Passages (prochaines 24 heures)

TLE

FraisSource: Space-Track

Époque: Sep 14, 2026, 06:09 UTC

1 30921U 99025AZK 26257.25678271  .00002559  00000-0  91380-3 0  9995
2 30921  98.8396 355.7678 0015713 303.5435  82.9630 14.34975630  7615

Suivez FENGYUN 1C DEB en temps réel avec AllMySat

Download on the App Store